Time,TemperatureF,DewpointF,PressureIn,WindDirection,WindDirectionDegrees,WindSpeedMPH,WindSpeedGustMPH,Humidity,HourlyPrecipIn,Conditions,Clouds,dailyrainin,SoftwareType,DateUTC
2013-09-04 00:02:00,66.0,60.0,30.05,NNE,24,0.0,0.0,82,0.00,,,0.00,,2013-09-04 05:02:00,
2013-09-04 00:23:00,66.0,60.0,30.05,NNE,24,0.0,0.0,82,0.00,,,0.00,,2013-09-04 05:23:00,
2013-09-04 00:34:00,66.0,60.0,30.05,NNE,24,0.0,0.0,82,0.00,,,0.00,,2013-09-04 05:34:00,
2013-09-04 00:43:00,66.0,60.0,30.05,NNE,24,0.0,0.0,82,0.00,,,0.00,,2013-09-04 05:43:00,
2013-09-04 00:53:00,66.0,60.0,30.05,NNE,24,0.0,0.0,82,0.00,,,0.00,,2013-09-04 05:53:00,
2013-09-04 02:02:00,63.0,59.0,30.06,NNE,23,0.0,1.0,87,0.00,,,0.00,,2013-09-04 07:02:00,
2013-09-04 02:22:00,63.0,59.0,30.06,NNE,23,0.0,1.0,87,0.00,,,0.00,,2013-09-04 07:22:00,
2013-09-04 02:32:00,63.0,59.0,30.06,NNE,23,0.0,1.0,87,0.00,,,0.00,,2013-09-04 07:32:00,
2013-09-04 02:42:00,63.0,59.0,30.06,NNE,23,0.0,1.0,87,0.00,,,0.00,,2013-09-04 07:42:00,
2013-09-04 02:52:00,63.0,59.0,30.06,NNE,23,0.0,1.0,87,0.00,,,0.00,,2013-09-04 07:52:00,
2013-09-04 04:02:00,61.0,58.0,30.07,NNE,19,0.0,0.0,89,0.00,,,0.00,,2013-09-04 09:02:00,
2013-09-04 04:22:00,61.0,58.0,30.07,NNE,19,0.0,0.0,89,0.00,,,0.00,,2013-09-04 09:22:00,
2013-09-04 04:33:00,61.0,58.0,30.07,NNE,19,0.0,0.0,89,0.00,,,0.00,,2013-09-04 09:33:00,
2013-09-04 04:43:00,61.0,58.0,30.07,NNE,19,0.0,0.0,89,0.00,,,0.00,,2013-09-04 09:43:00,
2013-09-04 04:53:00,61.0,58.0,30.07,NNE,19,0.0,0.0,89,0.00,,,0.00,,2013-09-04 09:53:00,
2013-09-04 06:02:00,59.0,57.0,30.09,NNE,19,0.0,1.0,92,0.00,,,0.00,,2013-09-04 11:02:00,
2013-09-04 06:22:00,59.0,57.0,30.09,NNE,19,0.0,1.0,92,0.00,,,0.00,,2013-09-04 11:22:00,
2013-09-04 06:33:00,59.0,57.0,30.09,NNE,19,0.0,1.0,92,0.00,,,0.00,,2013-09-04 11:33:00,
2013-09-04 06:52:00,59.0,57.0,30.09,NNE,19,0.0,1.0,92,0.00,,,0.00,,2013-09-04 11:52:00,
2013-09-04 08:22:00,67.0,62.0,30.13,NNE,19,0.0,0.0,83,0.00,,,0.00,,2013-09-04 13:22:00,
2013-09-04 08:32:00,67.0,62.0,30.13,NNE,19,0.0,0.0,83,0.00,,,0.00,,2013-09-04 13:32:00,
2013-09-04 08:52:00,67.0,62.0,30.13,NNE,19,0.0,0.0,83,0.00,,,0.00,,2013-09-04 13:52:00,
2013-09-04 10:02:00,80.0,60.0,30.15,SW,232,2.0,4.0,51,0.00,,,0.00,,2013-09-04 15:02:00,
2013-09-04 10:22:00,80.0,60.0,30.15,SW,232,2.0,4.0,51,0.00,,,0.00,,2013-09-04 15:22:00,
2013-09-04 10:33:00,80.0,60.0,30.15,SW,232,2.0,4.0,51,0.00,,,0.00,,2013-09-04 15:33:00,
2013-09-04 10:43:00,80.0,60.0,30.15,SW,232,2.0,4.0,51,0.00,,,0.00,,2013-09-04 15:43:00,
2013-09-04 10:53:00,80.0,60.0,30.15,SW,232,2.0,4.0,51,0.00,,,0.00,,2013-09-04 15:53:00,
2013-09-04 12:02:00,86.0,59.0,30.15,WSW,247,1.0,4.0,40,0.00,,,0.00,,2013-09-04 17:02:00,
2013-09-04 12:23:00,86.0,59.0,30.15,WSW,247,1.0,4.0,40,0.00,,,0.00,,2013-09-04 17:23:00,
2013-09-04 12:34:00,86.0,59.0,30.15,WSW,247,1.0,4.0,40,0.00,,,0.00,,2013-09-04 17:34:00,
2013-09-04 12:42:00,86.0,59.0,30.15,WSW,247,1.0,4.0,40,0.00,,,0.00,,2013-09-04 17:42:00,
2013-09-04 12:53:00,86.0,59.0,30.15,WSW,247,1.0,4.0,40,0.00,,,0.00,,2013-09-04 17:53:00,
2013-09-04 14:02:00,87.0,57.0,30.12,NE,44,1.0,6.0,36,0.00,,,0.00,,2013-09-04 19:02:00,
2013-09-04 14:22:00,87.0,57.0,30.12,NE,44,1.0,6.0,36,0.00,,,0.00,,2013-09-04 19:22:00,
2013-09-04 14:32:00,87.0,57.0,30.12,NE,44,1.0,6.0,36,0.00,,,0.00,,2013-09-04 19:32:00,
2013-09-04 14:42:00,87.0,57.0,30.12,NE,44,1.0,6.0,36,0.00,,,0.00,,2013-09-04 19:42:00,
2013-09-04 14:52:00,87.0,57.0,30.12,NE,44,1.0,6.0,36,0.00,,,0.00,,2013-09-04 19:52:00,
2013-09-04 16:02:00,87.0,58.0,30.09,SSE,158,6.0,11.0,38,0.00,,,0.00,,2013-09-04 21:02:00,
2013-09-04 16:22:00,87.0,58.0,30.09,SSE,158,6.0,11.0,38,0.00,,,0.00,,2013-09-04 21:22:00,
2013-09-04 16:34:00,87.0,58.0,30.09,SSE,158,6.0,11.0,38,0.00,,,0.00,,2013-09-04 21:34:00,
2013-09-04 16:44:00,87.0,58.0,30.09,SSE,158,6.0,11.0,38,0.00,,,0.00,,2013-09-04 21:44:00,
2013-09-04 16:54:00,87.0,58.0,30.09,SSE,158,6.0,11.0,38,0.00,,,0.00,,2013-09-04 21:54:00,
2013-09-04 18:22:00,84.0,60.0,30.08,SSE,153,3.0,6.0,45,0.00,,,0.00,,2013-09-04 23:22:00,
2013-09-04 18:34:00,84.0,60.0,30.08,SSE,153,3.0,6.0,45,0.00,,,0.00,,2013-09-04 23:34:00,
2013-09-04 18:42:00,84.0,60.0,30.08,SSE,153,3.0,6.0,45,0.00,,,0.00,,2013-09-04 23:42:00,
2013-09-04 18:52:00,84.0,60.0,30.08,SSE,153,3.0,6.0,45,0.00,,,0.00,,2013-09-04 23:52:00,
2013-09-04 19:01:00,84.0,60.0,30.08,SSE,153,3.0,6.0,45,0.00,,,0.00,,2013-09-05 00:01:00,